Location: DARK SKY Beskydy - Park tmavé oblohy, www.darkskybeskydy.cz
(49.4926°N, 18.5016°E)
Time: 14:08:39
(UTC+01:00)

Vanguard 1 - Pass Details

Date: 19 November 2025
Orbit: 650 x 3821 km, 34.2° (Epoch: 07 December)

Event Time Altitude Azimuth Distance (km) Brightness Sun altitude
Rises 19:26:07 0° 268° (W) 7,425 15.6 -33.3°
Reaches altitude 10° 19:31:06 10° 264° (W) 6,645 15.0 -34.1°
Maximum altitude 19:51:57 46° 201° (SSW) 4,518 13.2 -37.4°
Enters shadow 20:00:40 34° 159° (SSE) 4,748 13.1 -38.8°
